Location: Bannatyne
(13.0833°N, 59.5333°W)
Time: 15:13:36
(UTC+00:00)

Vanguard 3 - Pass Details

Date: 28 January 2020
Orbit: 508 x 3263 km, 33.3° (Epoch: 23 February)

Event Time Altitude Azimuth Distance (km) Brightness Sun altitude
Rises 04:50:16 0° 294° (WNW) 5,640 - -79.2°
Reaches altitude 10° 04:54:57 10° 288° (WNW) 4,149 - -78.2°
Maximum altitude 05:04:08 39° 224° (SW) 1,693 - -76.2°
Drops below altitude 10° 05:09:37 10° 156° (SSE) 2,471 - -74.9°
Sets 05:11:45 0° 147° (SSE) 3,177 - -74.5°
